Weather History for Trinity Center, CA

Change the Weather History Date:

Tuesday, December 31, 2013

  Actual Average (KMHS) Record (KMHS)
Temperature  
Mean Temperature 42 °F 35 °F  
Max Temperature 55 °F 44 °F 64 °F (1914)
Min Temperature 30 °F 26 °F 2 °F (1915)
Degree Days  
Heating Degree Days 22 30  
Month to date heating degree days 922  
Since 1 July heating degree days 2322  
Cooling Degree Days 0 0  
Month to date cooling degree days 0  
Year to date cooling degree days 288  
Moisture  
Dew Point 29 °F    
Average Humidity 74    
Maximum Humidity 93    
Minimum Humidity 33    
Precipitation  
Precipitation 0.00 in 0.25 in 2.65 in (1992)
Month to date precipitation 7.85  
Year to date precipitation 43.21  
Sea Level Pressure  
Sea Level Pressure 30.27 in    
Wind  
Wind Speed 1 mph (West)    
Max Wind Speed 5 mph    
Max Gust Speed -    
Visibility 10 miles    
Events      
T = Trace of Precipitation, MM = Missing Value Source: NWS Daily Summary

Daily Weather History Graph

Daily Weather History Graph

Search for Another Location

Airport:

Trip Planner

Search our weather history database for the weather conditions in past years. The results will help you decide how hot, cold, wet, or windy it might be!

Date:

Astronomy

Dec. 31, 2013 Rise Set
Actual Time 7:35 AM PST 4:52 PM PST
Civil Twilight 7:04 AM PST 5:23 PM PST
Nautical Twilight 6:30 AM PST 5:58 PM PST
Astronomical Twilight 5:56 AM PST 6:31 PM PST
Moon 6:33 AM PST (12/31) 4:35 PM PST (12/31)
Length of Visible Light 10h 19m
Length of Day
9h 17m
Waning Crescent, 1% of the Moon is Illuminated
Dec 31
Waning Crescent
Jan 1
New
Jan 7
First Quarter
Jan 15
Full
Jan 23
Last Quarter

Hourly Weather History & Observations

Time (PST) Temp. Windchill Dew Point Humidity Pressure Visibility Wind Dir Wind Speed Gust Speed Precip Events Conditions
12:05 AM 32.0 °F 28.7 °F 28.4 °F 87% 30.28 in 5.0 mi West 3.5 mph - N/A   Clear
12:25 AM 32.0 °F - 28.4 °F 87% 30.28 in 10.0 mi Calm Calm - N/A   Clear
12:45 AM 32.0 °F - 28.4 °F 87% 30.28 in 10.0 mi Calm Calm - N/A   Clear
1:05 AM 32.0 °F - 28.4 °F 87% 30.28 in 10.0 mi Calm Calm - N/A   Clear
1:25 AM 32.0 °F - 26.6 °F 80% 30.28 in 10.0 mi Calm Calm - N/A   Clear
1:45 AM 30.2 °F - 26.6 °F 86% 30.28 in 10.0 mi Calm Calm - N/A   Clear
2:05 AM 30.2 °F - 26.6 °F 86% 30.29 in 10.0 mi Calm Calm - N/A   Clear
2:25 AM 30.2 °F - 26.6 °F 86% 30.28 in 10.0 mi Calm Calm - N/A   Clear
2:45 AM 30.2 °F - 26.6 °F 86% 30.29 in 10.0 mi Calm Calm - N/A   Clear
3:05 AM 30.2 °F - 26.6 °F 86% 30.28 in 10.0 mi Calm Calm - N/A   Clear
3:25 AM 30.2 °F - 26.6 °F 86% 30.28 in 10.0 mi Calm Calm - N/A   Clear
3:45 AM 32.0 °F - 26.6 °F 80% 30.27 in 10.0 mi Calm Calm - N/A   Clear
4:05 AM 32.0 °F - 28.4 °F 87% 30.27 in 10.0 mi Calm Calm - N/A   Clear
4:25 AM 32.0 °F - 28.4 °F 87% 30.27 in 10.0 mi Calm Calm - N/A   Clear
4:45 AM 32.0 °F - 28.4 °F 87% 30.27 in 10.0 mi Calm Calm - N/A   Clear
5:05 AM 32.0 °F - 28.4 °F 87% 30.28 in 10.0 mi Calm Calm - N/A   Partly Cloudy
5:25 AM 32.0 °F - 28.4 °F 87% 30.28 in 10.0 mi Calm Calm - N/A   Scattered Clouds
5:45 AM 32.0 °F - 28.4 °F 87% 30.28 in 10.0 mi Calm Calm - N/A   Mostly Cloudy
6:05 AM 32.0 °F - 28.4 °F 87% 30.28 in 10.0 mi Calm Calm - N/A   Scattered Clouds
6:25 AM 32.0 °F - 28.4 °F 87% 30.28 in 10.0 mi Calm Calm - N/A   Clear
6:45 AM 32.0 °F - 28.4 °F 87% 30.29 in 10.0 mi Calm Calm - N/A   Clear
7:05 AM 32.0 °F - 28.4 °F 87% 30.29 in 10.0 mi Calm Calm - N/A   Partly Cloudy
7:25 AM 32.0 °F - 30.2 °F 93% 30.29 in 10.0 mi Calm Calm - N/A   Mostly Cloudy
7:45 AM 32.0 °F - 30.2 °F 93% 30.29 in 9.0 mi Calm Calm - N/A   Overcast
8:05 AM 32.0 °F - 28.4 °F 87% 30.30 in 10.0 mi Calm Calm - N/A   Scattered Clouds
8:25 AM 32.0 °F - 28.4 °F 87% 30.31 in 10.0 mi Calm Calm - N/A   Clear
8:45 AM 35.6 °F - 32.0 °F 87% 30.31 in 10.0 mi Calm Calm - N/A   Clear
9:05 AM 37.4 °F - 28.4 °F 70% 30.32 in 10.0 mi Calm Calm - N/A   Clear
9:25 AM 37.4 °F - 32.0 °F 81% 30.32 in 10.0 mi Calm Calm - N/A   Clear
9:45 AM 39.2 °F - 32.0 °F 75% 30.32 in 10.0 mi Calm Calm - N/A   Partly Cloudy
10:05 AM 39.2 °F 37.0 °F 32.0 °F 75% 30.32 in 10.0 mi East 3.5 mph - N/A   Clear
10:25 AM 41.0 °F - 32.0 °F 70% 30.31 in 10.0 mi Calm Calm - N/A   Clear
10:45 AM 42.8 °F - 32.0 °F 66% 30.30 in 10.0 mi Calm Calm - N/A   Clear
11:05 AM 44.6 °F - 30.2 °F 57% 30.29 in 10.0 mi Calm Calm - N/A   Clear
11:25 AM 46.4 °F - 28.4 °F 50% 30.29 in 10.0 mi Calm Calm - N/A   Clear
11:45 AM 48.2 °F - 32.0 °F 54% 30.27 in 10.0 mi Calm Calm - N/A   Clear
12:05 PM 48.2 °F - 32.0 °F 54% 30.26 in 10.0 mi Calm Calm - N/A   Clear
12:25 PM 50.0 °F - 28.4 °F 43% 30.25 in 10.0 mi Calm Calm - N/A   Clear
12:45 PM 50.0 °F - 28.4 °F 43% 30.25 in 10.0 mi Calm Calm - N/A   Clear
1:05 PM 51.8 °F - 28.4 °F 41% 30.24 in 10.0 mi Calm Calm - N/A   Clear
1:25 PM 53.6 °F - 28.4 °F 38% 30.23 in 10.0 mi SSE 3.5 mph - N/A   Clear
1:45 PM 53.6 °F - 28.4 °F 38% 30.22 in 10.0 mi Calm Calm - N/A   Clear
2:05 PM 55.4 °F - 26.6 °F 33% 30.22 in 10.0 mi Calm Calm - N/A   Clear
2:25 PM 55.4 °F - 35.6 °F 47% 30.22 in 10.0 mi Calm Calm - N/A   Clear
2:45 PM 55.4 °F - 33.8 °F 44% 30.22 in 10.0 mi Calm Calm - N/A   Clear
3:05 PM 55.4 °F - 30.2 °F 38% 30.22 in 10.0 mi Calm Calm - N/A   Clear
3:25 PM 55.4 °F - 33.8 °F 44% 30.22 in 10.0 mi Calm Calm - N/A   Clear
3:45 PM 50.0 °F - 32.0 °F 50% 30.22 in 10.0 mi Calm Calm - N/A   Clear
4:05 PM 46.4 °F - 33.8 °F 62% 30.22 in 10.0 mi Calm Calm - N/A   Clear
4:25 PM 44.6 °F - 33.8 °F 66% 30.22 in 9.0 mi Calm Calm - N/A   Clear
4:45 PM 42.8 °F - 32.0 °F 66% 30.23 in 10.0 mi Calm Calm - N/A   Clear
5:05 PM 44.6 °F - 32.0 °F 61% 30.23 in 9.0 mi Calm Calm - N/A   Clear
5:25 PM 41.0 °F - 32.0 °F 70% 30.24 in 10.0 mi Calm Calm - N/A   Clear
5:45 PM 41.0 °F - 32.0 °F 70% 30.24 in 10.0 mi Calm Calm - N/A   Clear
6:05 PM 37.4 °F 34.9 °F 32.0 °F 81% 30.24 in 10.0 mi West 3.5 mph - N/A   Clear
6:25 PM 37.4 °F - 32.0 °F 81% 30.25 in 10.0 mi Calm Calm - N/A   Clear
6:45 PM 37.4 °F 33.8 °F 30.2 °F 75% 30.25 in 10.0 mi WNW 4.6 mph - N/A   Clear
7:05 PM 37.4 °F - 30.2 °F 75% 30.26 in 10.0 mi Calm Calm - N/A   Clear
7:25 PM 35.6 °F 32.8 °F 28.4 °F 75% 30.26 in 10.0 mi West 3.5 mph - N/A   Clear
7:45 PM 33.8 °F - 28.4 °F 81% 30.26 in 10.0 mi Calm Calm - N/A   Clear
8:05 PM 32.0 °F 28.7 °F 28.4 °F 87% 30.27 in 9.0 mi West 3.5 mph - N/A   Clear
8:25 PM 33.8 °F - 28.4 °F 81% 30.27 in 10.0 mi Calm Calm - N/A   Clear
8:45 PM 32.0 °F 28.7 °F 28.4 °F 87% 30.28 in 10.0 mi WNW 3.5 mph - N/A   Clear
9:05 PM 32.0 °F 28.7 °F 28.4 °F 87% 30.28 in 10.0 mi West 3.5 mph - N/A   Clear
9:25 PM 32.0 °F - 28.4 °F 87% 30.28 in 10.0 mi Calm Calm - N/A   Clear
9:45 PM 32.0 °F - 28.4 °F 87% 30.29 in 10.0 mi Calm Calm - N/A   Clear
10:05 PM 32.0 °F - 28.4 °F 87% 30.29 in 10.0 mi Calm Calm - N/A   Clear
10:25 PM 32.0 °F - 28.4 °F 87% 30.30 in 10.0 mi Calm Calm - N/A   Clear
10:45 PM 32.0 °F - 28.4 °F 87% 30.30 in 10.0 mi Calm Calm - N/A   Clear
11:05 PM 32.0 °F - 28.4 °F 87% 30.30 in 10.0 mi Calm Calm - N/A   Clear
11:25 PM 32.0 °F - 28.4 °F 87% 30.30 in 10.0 mi Calm Calm - N/A   Clear
11:45 PM 30.2 °F - 26.6 °F 86% 30.30 in 10.0 mi Calm Calm - N/A   Clear